Location: Gammelsbach
(49.5261°N, 8.9630°E)
Time: 05:14:53
(UTC+00:00)

Meteor 1-15 Rocket - Pass Details

Date: 17 June 2025
Orbit: 838 x 906 km, 81.2° (Epoch: 12 July)

Event Time Altitude Azimuth Distance (km) Brightness Sun altitude
Rises 20:23:01 0° 348° (NNW) 3,437 8.6 -6.6°
Reaches altitude 10° 20:25:28 10° 350° (N) 2,488 7.7 -6.9°
Maximum altitude 20:31:07 77° 77° (ENE) 869 4.2 -7.5°
Drops below altitude 10° 20:36:40 10° 164° (SSE) 2,448 6.0 -8.0°
Enters shadow 20:37:13 - 164° (SSE) 2,665 6.2 -8.1°
